TimeEDT,TemperatureF,Dew PointF,Humidity,Sea Level PressureIn,VisibilityMPH,Wind Direction,Wind SpeedMPH,Gust SpeedMPH,PrecipitationIn,Events,Conditions,WindDirDegrees,DateUTC
12:58 AM,71.2,65.5,82,30.14,10.0,South,3.5,-,N/A,,Clear,180,2013-06-01 04:58:00
1:58 AM,69.8,65.8,87,30.13,10.0,South,3.5,-,N/A,,Clear,190,2013-06-01 05:58:00
2:58 AM,69.1,66.4,91,30.12,10.0,South,1.2,-,N/A,,Clear,170,2013-06-01 06:58:00
3:33 AM,68.0,68.0,100,30.12,10.0,Calm,Calm,-,N/A,,Partly Cloudy,0,2013-06-01 07:33:00
3:43 AM,68.0,68.0,100,30.13,10.0,Calm,Calm,-,N/A,,Mostly Cloudy,0,2013-06-01 07:43:00
3:48 AM,69.8,68.0,94,30.13,10.0,Calm,Calm,-,N/A,,Mostly Cloudy,0,2013-06-01 07:48:00
3:58 AM,69.1,67.6,95,30.13,8.0,Calm,Calm,-,N/A,,Mostly Cloudy,0,2013-06-01 07:58:00
4:03 AM,69.8,68.0,94,30.13,7.0,Calm,Calm,-,N/A,,Mostly Cloudy,0,2013-06-01 08:03:00
4:08 AM,69.8,68.0,94,30.13,8.0,Calm,Calm,-,N/A,,Scattered Clouds,0,2013-06-01 08:08:00
4:18 AM,68.0,68.0,100,30.13,6.0,Calm,Calm,-,N/A,,Partly Cloudy,0,2013-06-01 08:18:00
4:23 AM,69.8,68.0,94,30.14,2.0,Calm,Calm,-,N/A,,Partly Cloudy,0,2013-06-01 08:23:00
4:28 AM,68.0,68.0,100,30.14,0.8,SSW,2.3,-,N/A,,Mist,210,2013-06-01 08:28:00
4:33 AM,68.0,68.0,100,30.14,0.5,WSW,1.2,-,N/A,Fog,Fog,250,2013-06-01 08:33:00
4:38 AM,68.0,68.0,100,30.14,0.2,Calm,Calm,-,N/A,Fog,Fog,0,2013-06-01 08:38:00
4:58 AM,69.1,68.7,99,30.14,0.2,Calm,Calm,-,N/A,Fog,Fog,0,2013-06-01 08:58:00
5:03 AM,69.8,68.0,94,30.14,0.5,Calm,Calm,-,N/A,Fog,Fog,0,2013-06-01 09:03:00
5:08 AM,69.8,69.8,100,30.14,1.0,Calm,Calm,-,N/A,,Mist,0,2013-06-01 09:08:00
5:18 AM,69.8,69.8,100,30.14,0.8,SW,2.3,-,N/A,,Mist,230,2013-06-01 09:18:00
5:23 AM,69.8,69.8,100,30.14,0.5,SW,3.5,-,N/A,Fog,Fog,230,2013-06-01 09:23:00
5:58 AM,69.3,69.3,100,30.15,0.5,South,3.5,-,N/A,Fog,Fog,180,2013-06-01 09:58:00
6:08 AM,69.8,69.8,100,30.15,0.2,South,2.3,-,N/A,Fog,Fog,190,2013-06-01 10:08:00
6:23 AM,69.8,69.8,100,30.15,0.2,SSE,2.3,-,N/A,Fog,Fog,150,2013-06-01 10:23:00
6:43 AM,68.0,68.0,100,30.15,0.2,SSW,3.5,-,N/A,Fog,Fog,200,2013-06-01 10:43:00
6:58 AM,68.9,68.9,100,30.15,0.2,SSW,3.5,-,N/A,Fog,Fog,200,2013-06-01 10:58:00
7:13 AM,69.8,69.8,100,30.15,0.2,South,3.5,-,N/A,Fog,Fog,180,2013-06-01 11:13:00
7:18 AM,69.8,69.8,100,30.16,0.2,South,4.6,-,N/A,Fog,Fog,170,2013-06-01 11:18:00
7:23 AM,69.8,69.8,100,30.16,0.5,South,3.5,-,N/A,Fog,Fog,190,2013-06-01 11:23:00
7:33 AM,69.8,69.8,100,30.16,0.2,South,3.5,-,N/A,Fog,Fog,170,2013-06-01 11:33:00
7:53 AM,69.8,69.8,100,30.16,0.5,SSE,3.5,-,N/A,Fog,Fog,150,2013-06-01 11:53:00
7:58 AM,69.4,69.4,100,30.16,0.8,South,3.5,-,N/A,,Mist,180,2013-06-01 11:58:00
8:03 AM,69.8,69.8,100,30.16,1.0,SSE,2.3,-,N/A,,Mist,150,2013-06-01 12:03:00
8:08 AM,69.8,69.8,100,30.16,1.2,SSE,2.3,-,N/A,,Overcast,160,2013-06-01 12:08:00
8:13 AM,69.8,69.8,100,30.16,2.0,South,3.5,-,N/A,,Overcast,170,2013-06-01 12:13:00
8:18 AM,69.8,69.8,100,30.16,2.5,South,3.5,-,N/A,,Overcast,170,2013-06-01 12:18:00
8:23 AM,69.8,69.8,100,30.16,3.0,South,4.6,-,N/A,,Overcast,170,2013-06-01 12:23:00
8:43 AM,69.8,69.8,100,30.16,10.0,South,3.5,-,N/A,,Overcast,180,2013-06-01 12:43:00
8:58 AM,70.9,70.9,100,30.16,10.0,Variable,4.6,-,N/A,,Overcast,0,2013-06-01 12:58:00
9:08 AM,71.6,71.6,100,30.15,10.0,South,4.6,-,N/A,,Overcast,180,2013-06-01 13:08:00
9:28 AM,73.4,73.4,100,30.15,10.0,SW,6.9,-,N/A,,Overcast,220,2013-06-01 13:28:00
9:33 AM,73.4,73.4,100,30.15,10.0,SSW,6.9,-,N/A,,Overcast,200,2013-06-01 13:33:00
9:43 AM,73.4,73.4,100,30.15,10.0,South,8.1,-,N/A,,Overcast,190,2013-06-01 13:43:00
9:48 AM,73.4,73.4,100,30.15,10.0,South,6.9,-,N/A,,Overcast,170,2013-06-01 13:48:00
9:58 AM,74.5,74.5,100,30.15,10.0,South,6.9,-,N/A,,Overcast,180,2013-06-01 13:58:00
10:13 AM,77.0,66.2,69,30.14,10.0,South,6.9,-,N/A,,Mostly Cloudy,190,2013-06-01 14:13:00
10:18 AM,78.8,64.4,61,30.14,10.0,South,5.8,-,N/A,,Scattered Clouds,170,2013-06-01 14:18:00
10:58 AM,79.2,63.7,59,30.14,10.0,Variable,2.3,-,N/A,,Partly Cloudy,0,2013-06-01 14:58:00
11:58 AM,83.5,61.7,48,30.13,10.0,Variable,3.5,-,N/A,,Partly Cloudy,0,2013-06-01 15:58:00
12:58 PM,83.7,60.6,46,30.12,10.0,South,11.5,-,N/A,,Mostly Cloudy,170,2013-06-01 16:58:00
1:58 PM,86.2,59.4,40,30.11,10.0,South,8.1,-,N/A,,Mostly Cloudy,170,2013-06-01 17:58:00
2:58 PM,88.3,59.2,37,30.09,10.0,South,9.2,-,N/A,,Mostly Cloudy,180,2013-06-01 18:58:00
3:58 PM,86.4,57.4,37,30.07,10.0,South,9.2,-,N/A,,Scattered Clouds,190,2013-06-01 19:58:00
4:58 PM,88.2,58.5,37,30.06,10.0,South,10.4,-,N/A,,Clear,190,2013-06-01 20:58:00
5:58 PM,85.3,61.7,45,30.05,10.0,SSE,10.4,-,N/A,,Clear,150,2013-06-01 21:58:00
6:58 PM,85.8,61.2,43,30.04,10.0,SSE,10.4,-,N/A,,Clear,160,2013-06-01 22:58:00
7:58 PM,82.6,63.0,51,30.04,10.0,SE,10.4,-,N/A,,Clear,140,2013-06-01 23:58:00
8:58 PM,78.8,63.3,59,30.05,10.0,SSE,6.9,-,N/A,,Clear,150,2013-06-02 00:58:00
9:58 PM,76.3,62.2,62,30.07,10.0,South,6.9,-,N/A,,Clear,170,2013-06-02 01:58:00
10:58 PM,73.9,62.2,67,30.09,10.0,South,4.6,-,N/A,,Clear,180,2013-06-02 02:58:00
11:58 PM,72.3,63.1,73,30.10,10.0,South,6.9,-,N/A,,Clear,190,2013-06-02 03:58:00